Location: Gipe Farm
(40.9466°N, 95.5370°W)
Time: 01:49:35
(UTC-05:00)

Daily predictions for brighter satellites

Satellite Brightness Start Highest point End
(mag) Time Altitude Azimuth Time Altitude Azimuth Time Altitude Azimuth
Cosmos 1758 Rocket 3.7 00:07:46 69° NNE 00:07:46 69° NNE 00:11:38 10° N
H-2A R/B 3.4 00:09:07 30° WSW 00:09:27 30° W 00:13:27 10° NW
Orbus 7S? 3.7 00:05:45 10° NW 00:10:49 65° NW 00:10:49 65° NW
Tiangong 2 4.2 00:08:24 10° WNW 00:08:33 11° WNW 00:08:33 11° WNW
ATLAS CENTAUR R/B 2.5 00:08:07 10° NNW 00:10:50 35° NNE 00:10:50 35° NNE
Nadezhda 3 Rocket 4.3 00:12:40 40° SW 00:14:50 61° W 00:21:08 10° N
Cosmos 1697 Rocket 4.1 00:11:35 10° NW 00:16:04 25° WSW 00:17:01 24° WSW
Cosmos 2239 Rocket 4.4 00:14:37 10° N 00:20:48 79° W 00:21:54 62° SSW
Cosmos 389 Rocket 4.2 00:20:13 10° NNW 00:22:16 30° NW 00:22:16 30° NW
SL-16 R/B 2.1 00:19:13 10° NNW 00:24:55 78° ENE 00:25:26 71° ESE
Cosmos 1821 Rocket 4.1 00:23:52 10° NNW 00:30:07 69° W 00:31:16 57° SW
Terra 3.7 00:30:03 19° WSW 00:30:34 19° W 00:33:58 10° NW
Cosmos 1331 Rocket 3.9 00:27:28 10° NNW 00:32:31 73° W 00:32:31 73° W
Cosmos 1953 Rocket 4.3 00:34:27 46° WNW 00:34:27 46° WNW 00:38:38 10° N
Cosmos 1110 Rocket 4.2 00:30:26 10° NNW 00:35:29 60° W 00:35:29 60° W
Cosmos 972 Rocket 4.0 00:30:38 10° NNW 00:35:32 67° W 00:35:32 67° W
Cosmos 1733 4.5 00:35:34 10° NNW 00:38:09 39° NNW 00:38:09 39° NNW
CZ-2C R/B 3.2 00:39:13 68° ESE 00:39:35 70° ENE 00:45:14 10° N
Cosmos 1302 Rocket 4.0 00:35:51 10° NNW 00:41:09 77° ENE 00:41:09 77° ENE
ALOS 2 3.1 00:44:27 58° NNE 00:44:27 58° NNE 00:48:09 10° N
Cosmos 1727 Rocket 3.9 00:43:32 63° ESE 00:44:05 66° E 00:50:17 10° NNE
Cosmos 2322 4.4 00:44:53 10° NNW 00:50:16 43° ENE 00:51:19 39° E
Cosmos 1953 4.3 00:48:15 10° NW 00:50:49 22° WNW 00:50:49 22° WNW
USA 267 3.2 00:46:20 10° NE 00:52:54 86° NW 00:55:15 44° SW
Cosmos 1605 Rocket 3.8 00:46:48 10° N 00:52:55 85° W 00:53:30 74° SSW
SeaSat 1 2.5 00:53:41 73° NE 00:53:41 73° NE 00:58:31 10° NNW
ISS -0.6 00:53:19 10° NNW 00:55:14 14° N 00:57:08 10° NE
Cosmos 1833 4.3 00:56:14 63° E 00:56:14 63° E 01:01:33 10° NNE
Meteor 2-15 4.2 00:56:19 75° SSE 00:56:47 81° E 01:02:52 10° N
Lacrosse 5 2.0 00:56:51 66° WNW 00:57:03 67° NW 01:02:07 10° NE
Cosmos-2242 4.2 00:58:04 10° NNW 01:01:12 37° WNW 01:01:12 37° WNW
Cosmos 2251 Rocket 4.3 01:02:08 42° W 01:02:58 46° WNW 01:08:09 10° N
Meteor 2-5 Rocket 3.8 01:02:44 66° WSW 01:03:19 71° W 01:09:17 10° N
Cosmos 2219 4.5 01:04:29 27° E 01:04:29 27° E 01:08:29 10° NE
Cosmos 2360 Rocket 2.3 00:58:30 10° NNW 01:04:09 65° ENE 01:04:36 62° E
Cosmos 1980 Rocket 4.1 01:01:12 10° WNW 01:04:35 16° W 01:04:37 16° W
NOSS 3-1 (C) 4.1 00:57:13 10° NW 01:04:48 64° WSW 01:06:22 54° SSW
Cosmos 1153 Rocket 4.3 01:00:10 10° N 01:06:26 84° E 01:07:07 72° SSE
COSMOS 2428 4.0 01:02:50 10° N 01:08:02 34° ENE 01:09:55 27° E
Cosmos 2173 Rocket 4.4 01:03:10 10° N 01:09:05 50° ENE 01:09:56 47° ESE
Cosmos 2098 Rocket 3.8 01:07:36 10° NNW 01:12:10 58° W 01:12:10 58° W
CZ-4B R/B 4.0 01:16:48 18° NNE 01:16:48 18° NNE 01:17:57 10° N
Cosmos 2322 Rocket 3.0 01:11:08 10° NW 01:16:01 39° W 01:16:01 39° W
Lacrosse 5 rocket 2.5 01:12:41 10° NW 01:15:50 42° NW 01:15:50 42° NW
Meteor 1-16 Rocket 4.4 01:13:57 10° NNW 01:19:07 56° W 01:19:07 56° W
Meteor 2-15 Rocket 4.3 01:19:06 73° SW 01:19:39 80° W 01:25:46 10° N
Cosmos 2221 3.4 01:19:37 10° N 01:22:59 44° NE 01:22:59 44° NE
USA 234 3.8 01:21:19 14° ESE 01:26:54 54° NE 01:33:15 10° NW
Cosmos 1459 Rocket 4.0 01:24:12 10° N 01:30:35 76° E 01:31:27 66° SE
Geosat 4.0 01:28:25 10° NNE 01:33:03 71° ENE 01:33:03 71° ENE
CZ-2C R/B 3.5 01:28:38 10° N 01:33:51 42° WNW 01:34:42 39° W
ATLAS 2AS CENTAUR R/B 3.7 01:30:17 10° NNW 01:38:06 50° NE 01:43:52 17° ESE
NOSS 3-1 (A) 4.2 01:30:43 10° NW 01:38:12 53° WSW 01:39:16 50° SW
Meteor 1-24 Rocket 4.1 01:38:42 55° WSW 01:39:21 58° WNW 01:45:19 10° N
Cosmos 2333 Rocket 3.8 01:35:16 10° N 01:40:14 29° NE 01:43:19 18° ESE
Cosmos 1076 Rocket 4.2 01:46:38 51° NE 01:46:38 51° NE 01:50:03 10° NNE
Cosmos 2297 Rocket 4.2 01:45:42 15° ESE 01:46:05 16° E 01:49:17 10° ENE
Cosmos 2219 Rocket 3.3 01:41:52 10° N 01:47:12 39° ENE 01:49:22 29° ESE
Cosmos 1674 4.0 01:50:36 38° NNE 01:50:36 38° NNE 01:53:09 10° NNE
Cosmos 1802 Rocket 3.8 01:44:48 10° N 01:51:07 88° W 01:51:50 72° S
Cosmos 2016 Rocket 3.9 01:47:24 10° N 01:53:49 82° E 01:54:50 65° SSE
Cosmos 2100 Rocket 3.9 01:48:46 10° NNW 01:54:52 65° W 01:55:24 62° WSW
Meteor 2-17 Rocket 4.3 01:49:06 10° NNW 01:55:12 74° W 01:55:44 69° SW
Cosmos 1726 3.9 01:56:43 10° NNE 01:59:25 28° NE 01:59:25 28° NE
Cosmos 2237 Rocket 3.6 02:01:52 10° N 02:06:57 33° ENE 02:10:33 17° ESE
SL-16 R/B 4.3 02:05:29 10° WNW 02:07:17 13° W 02:07:17 13° W
SL-8 R/B 3.8 02:09:56 72° N 02:09:56 72° N 02:14:29 10° ENE
Cosmos 1300 4.1 02:08:50 10° N 02:11:53 33° ENE 02:11:53 33° ENE
Cosmos 2061 Rocket 4.2 02:08:01 10° NNW 02:14:03 54° W 02:14:41 52° WSW
Cosmos 1954 Rocket 4.4 02:17:53 48° ESE 02:18:07 49° ESE 02:23:10 10° NNE
Cosmos 407 Rocket 3.3 02:18:35 87° SW 02:18:41 89° WNW 02:23:52 10° NNE
Cosmos 2123 Rocket 3.8 02:20:10 64° SSW 02:21:11 83° W 02:27:24 10° N
Helios 1A Rocket 3.7 02:19:03 10° NNE 02:22:38 47° ENE 02:22:38 47° ENE
Cosmos 2227 Rocket 2.8 02:22:51 41° ESE 02:23:29 42° ESE 02:28:48 10° NE
H-2A R/B 3.0 02:19:51 10° N 02:23:39 56° NW 02:23:39 56° NW
Cosmos 2228 Rocket 3.4 02:21:31 10° N 02:25:59 59° E 02:26:03 59° E
Cosmos 2058 4.3 02:32:09 30° E 02:32:14 30° E 02:35:51 10° NNE
ISS -1.2 02:29:18 10° NW 02:30:11 16° NW 02:30:11 16° NW
Cosmos 2233 Rocket 4.1 02:28:16 10° N 02:34:37 74° E 02:36:35 46° SSE
Cosmos 676 Rocket 3.8 02:35:53 75° SSW 02:36:23 89° E 02:41:41 10° NNE
Cosmos 1190 Rocket 4.3 02:38:02 50° W 02:38:39 53° WNW 02:43:51 10° N
Lacrosse 5 4.2 02:37:15 10° WNW 02:40:53 19° NNW 02:44:31 10° NNE
CZ-2D R/B 4.1 02:39:18 10° NE 02:42:56 19° E 02:45:23 14° SE
Cosmos 1328 4.0 02:45:10 66° N 02:45:10 66° N 02:48:39 10° N
Cosmos 2360 Rocket 4.0 02:44:00 10° WNW 02:46:21 16° W 02:46:21 16° W
Cosmos 1356 Rocket 4.3 02:48:09 39° NW 02:48:09 39° NW 02:51:28 10° N
Cosmos 1408 Rocket 4.5 02:48:01 37° WNW 02:48:01 37° WNW 02:51:44 10° N
Cosmos 2219 4.0 02:46:23 35° W 02:47:43 41° WNW 02:53:01 10° N
Cosmos 1725 Rocket 4.2 02:42:52 10° NNW 02:49:00 54° W 02:50:08 47° SW
NOSS 0 Rocket 3.8 02:44:01 10° NNW 02:50:15 85° WSW 02:52:26 43° SSE
ERBS 3.8 02:50:47 33° NNW 02:50:47 33° NNW 02:53:28 10° NNE
COSMOS 2428 3.5 02:47:05 10° NW 02:51:54 36° W 02:51:54 36° W
Cosmos 1455 4.1 02:51:33 10° NNE 02:54:48 25° ENE 02:56:14 20° ESE
Cosmos 2082 3.8 02:53:37 52° SSE 02:54:49 66° ESE 03:00:23 10° NNE
Cosmos 1500 Rocket 3.4 02:54:48 84° SSE 02:54:56 87° ESE 02:59:24 10° N
SL-08 R/B 3.9 02:57:02 35° SE 02:58:57 58° ENE 03:03:50 10° N
PSLV R/B 3.9 03:00:44 67° WNW 03:00:44 67° WNW 03:04:27 10° NNW
Meteor 2-12 Rocket 4.3 02:57:07 10° N 03:03:18 88° W 03:05:31 43° S
Lacrosse 4 Rocket 3.3 03:02:51 18° ESE 03:03:27 18° ESE 03:06:22 10° ENE
AQUA 4.2 03:00:06 10° NNE 03:04:46 54° E 03:05:53 44° SE
Cosmos 1464 Rocket 4.3 03:02:24 10° N 03:08:30 60° E 03:12:16 23° SSE
Cosmos 1626 2.4 03:09:45 61° E 03:09:47 61° E 03:13:29 10° NNE
USA 234 3.4 03:08:35 41° SSW 03:09:57 47° SW 03:16:13 10° WNW
Meteor 1-11 4.2 03:09:22 49° SSW 03:11:01 87° W 03:16:49 10° N
Cosmos 1900 4.3 03:11:23 58° S 03:12:17 75° ESE 03:17:17 10° NE
Meteor 1-27 4.2 03:07:16 10° N 03:13:07 89° WSW 03:15:28 38° S
Cosmos 1515 Rocket 3.9 03:11:19 10° NNW 03:15:32 49° W 03:15:32 49° W
ADEOS Rocket 4.0 03:08:17 10° NNE 03:15:42 58° E 03:20:34 24° S
DELTA 2 R/B (1) 3.6 03:15:05 50° SSW 03:15:57 56° SSE 03:21:23 10° E
Cosmos 1743 Rocket 4.3 03:16:44 38° W 03:16:56 38° WNW 03:21:06 10° N
Cosmos 614 Rocket 4.0 03:18:52 50° SW 03:20:10 71° WNW 03:25:25 10° NNE
IRS-1D 4.5 03:15:42 10° NNE 03:20:46 43° E 03:23:25 25° SSE
IRS-P3 4.1 03:16:48 10° N 03:22:09 76° WNW 03:23:48 45° SSW
NOSS 2-1 (D) 3.7 03:22:14 48° WNW 03:22:42 51° NW 03:26:52 10° NNE
NOSS 2-1 (C) 3.6 03:22:23 49° WNW 03:22:51 52° NW 03:27:01 10° NNE
Cosmos 1140 Rocket 3.8 03:22:02 42° WSW 03:23:21 53° WNW 03:28:28 10° N
Cosmos 2333 Rocket 2.6 03:19:16 10° NW 03:24:36 41° WSW 03:25:16 40° SW
Cosmos 1703 3.1 03:27:38 69° SW 03:27:57 75° W 03:31:53 10° N
Aureole 2 Rocket 3.2 03:24:34 10° NNW 03:28:13 47° W 03:28:13 47° W
Cosmos 2151 3.3 03:28:22 46° W 03:28:42 47° W 03:32:48 10° N
ATLAS 2AS CENTAUR R/B 3.4 03:21:44 10° NW 03:28:59 41° WSW 03:31:13 33° SSW
Cosmos 2297 Rocket 2.2 03:27:30 42° SW 03:29:26 70° WNW 03:35:06 10° NNE
Cosmos 2219 Rocket 3.1 03:26:07 10° NW 03:30:58 30° WSW 03:31:03 30° WSW
Cosmos 1980 4.0 03:27:04 10° NW 03:32:30 47° WSW 03:33:55 39° SSW
Cosmos 1726 4.4 03:32:52 10° NW 03:34:01 14° WNW 03:34:01 14° WNW
Sich 1 3.8 03:34:32 26° SSE 03:36:36 46° E 03:40:47 10° NNE
Cosmos 1633 Rocket 4.2 03:34:27 21° SSE 03:36:48 39° E 03:40:51 10° NNE
Cosmos 1850 Rocket 4.0 03:36:33 41° SW 03:38:17 67° WNW 03:43:28 10° NNE
Cosmos 1356 3.3 03:40:52 68° WSW 03:41:08 73° W 03:44:40 10° N
NPP 4.0 03:39:31 10° N 03:44:44 52° WNW 03:46:52 33° SW
Cosmos 1741 Rocket 4.2 03:43:11 36° SW 03:45:11 61° WNW 03:50:30 10° NNE
NOSS 2-1 (E) 4.4 03:44:38 28° W 03:45:51 35° NW 03:49:55 10° NNE
Cosmos 1151 Rocket 4.1 03:44:03 10° NNW 03:47:47 29° W 03:47:57 28° W
SL-16 R/B 2.5 03:43:24 16° SSE 03:48:26 86° WSW 03:54:40 10° NNW
UNKNOWN OBJECT B 4.2 03:46:39 10° NNE 03:50:18 33° E 03:52:49 17° SSE
Cosmos 2237 Rocket 2.8 03:45:54 10° NW 03:50:59 36° WSW 03:52:19 31° SW
SL-16 R/B 2.1 03:47:12 10° NNW 03:52:55 84° WSW 03:58:35 10° SSE
ATLAS 5 CENTAUR R/B 4.1 03:50:41 10° SE 03:53:01 14° ESE 03:55:25 10° ENE
ADEOS 3.6 03:51:31 10° NNE 03:56:47 82° ESE 03:59:54 25° S
Resurs 1-4 Rocket 2.1 03:56:15 10° N 04:01:35 81° WNW 04:04:44 26° SSW
Cosmos 1570 Rocket 4.3 03:56:52 10° NNW 04:01:59 47° WSW 04:04:42 25° SSW
CZ-3B DEB 4.5 03:55:00 23° SW 04:05:31 87° SE 04:19:45 10° NE
ARIANE 5 R/B 2.4 04:00:42 10° N 04:05:48 80° WNW 04:08:48 25° SSW
ATLAS 3B CENTAUR R/B 4.0 03:51:56 10° W 04:07:00 37° SSW 04:13:11 10° SE
Cosmos 2034 Rocket 4.1 04:01:06 10° NNW 04:07:23 65° W 04:12:21 17° S
ADEOS II 4.4 04:03:57 10° NE 04:07:36 19° E 04:11:15 10° SE
Cosmos 2227 Rocket 3.5 04:04:40 18° W 04:07:40 29° NW 04:12:33 10° N
UNK 4.0 04:12:55 24° SSW 04:15:19 47° W 04:19:48 10° NNW
Cosmos 1707 Rocket 3.7 04:11:58 10° NNW 04:16:13 52° W 04:18:44 23° SSW
BREEZE M DEB (TANK) 4.3 04:15:57 15° SSE 04:16:36 15° SSE 04:18:11 10° ESE
COBE Rocket 4.1 04:12:09 10° N 04:16:39 50° WNW 04:19:08 24° SW
CZ-2D R/B 2.4 04:18:13 10° N 04:23:17 52° WNW 04:26:43 20° SW
Cosmos 2242 Rocket 3.6 04:19:25 10° N 04:23:56 86° E 04:28:27 10° S
MOZ.5/SAFIR/RUBIN 5/SL-8 3.8 04:19:40 10° SSE 04:24:25 87° ENE 04:29:14 10° NNW
Tsikada Rocket 4.2 04:21:32 18° SSW 04:26:16 61° W 04:32:39 10° N
Cosmos 2263 Rocket 4.0 04:22:31 10° SSE 04:27:01 26° ESE 04:31:31 10° NE
Cosmos 1933 4.0 04:23:40 10° N 04:27:43 58° E 04:31:45 10° SSE
CZ-3 R/B 4.3 03:35:57 10° W 04:28:18 56° SSW 04:39:58 10° ESE
Cosmos 1455 3.7 04:27:25 10° NW 04:30:20 20° W 04:31:12 19° WSW
Cosmos 1666 Rocket 4.1 04:28:05 22° SW 04:30:31 41° WNW 04:34:45 10° N
USA 161 1.8 04:30:02 13° SSE 04:31:34 41° ENE 04:33:25 10° N
Meteor 2-10 Rocket 4.0 04:28:57 10° N 04:33:55 61° ENE 04:38:55 10° SSE
Cosmos 1862 Rocket 3.7 04:30:57 10° N 04:35:18 72° E 04:39:35 10° SSE
GPS 2-04 Rocket1 4.5 04:36:04 16° SSW 04:36:04 16° SSW 04:38:09 10° SSE
Cosmos 1486 Rocket 4.0 04:31:21 14° SSW 04:35:48 82° ESE 04:41:04 10° NNE
In-Cosmos 22 Rocket 4.4 04:34:15 10° S 04:39:30 68° E 04:44:47 10° NNE
Cosmos 1933 Rocket 3.6 04:36:04 11° S 04:40:20 89° E 04:44:49 10° N
Cosmos 841 Rocket 3.9 04:35:28 10° NNW 04:40:46 70° ENE 04:46:00 10° SSE
Lacrosse 4 Rocket 2.2 04:39:11 18° WSW 04:41:51 38° WNW 04:45:49 10° NNE
Cosmos 1400 Rocket 3.2 04:38:58 10° S 04:42:47 60° E 04:46:43 10° NNE
ORS 1 (USA 231) 4.5 04:44:32 18° WSW 04:46:42 69° S 04:49:45 10° E
Cosmos 468 Rocket 4.4 04:44:34 10° NW 04:49:24 40° WSW 04:54:11 10° S
Cosmos 371 Rocket 3.2 04:46:32 10° NNW 04:51:19 68° WSW 04:56:04 10° S
Landsat 4 4.4 04:47:56 10° SSE 04:51:40 57° ENE 04:55:26 10° N
ADEOS Rocket 4.5 04:54:22 10° N 05:00:45 32° WNW 05:07:20 10° WSW
CZ-3A R/B 2.4 04:57:41 10° NW 05:00:54 74° NE 05:11:51 10° SE
DELTA 2 R/B (1) 3.6 04:56:40 10° W 05:02:14 79° S 05:07:49 10° E
Cosmos 2285 Rocket 4.0 04:58:56 10° NNW 05:05:15 85° WSW 05:11:34 10° SSE
CZ-2D R/B 4.3 05:03:43 10° N 05:07:23 34° WNW 05:11:08 10° SW
RESURS DK-1 3.9 05:03:26 10° NNW 05:07:25 42° ENE 05:11:22 10° SE
Okean O Rocket 2.1 05:05:06 10° NNE 05:09:25 61° ESE 05:13:43 10° S
Cosmos 1763 Rocket 3.7 05:05:00 10° NNW 05:10:01 49° WSW 05:14:58 10° S
Cosmos 1818 3.7 05:06:26 10° NNW 05:11:55 83° ENE 05:17:20 10° SSE
GP-B 3.1 05:07:40 10° N 05:12:08 79° W 05:16:33 10° S
Cosmos 1634 Rocket 4.2 05:06:58 10° NNW 05:12:54 50° W 05:18:47 10° SSW
MOS 1-B 4.4 05:07:13 10° N 05:12:58 69° WNW 05:18:41 10° SSW
Cosmos 2279 Rocket 4.0 05:07:04 10° N 05:13:18 85° W 05:19:32 10° S
BREEZE-M R/B 3.2 05:07:10 10° WSW 05:13:57 83° NW 05:17:21 10° ENE
Cosmos 2297 Rocket 4.3 05:12:21 10° WNW 05:14:34 12° NW 05:16:46 10° NNW
Cosmos 1503 Rocket 4.1 05:09:43 10° SSW 05:15:01 87° WNW 05:20:18 10° NNE
Cosmos 1470 Rocket 4.4 05:11:19 10° SW 05:15:12 32° WNW 05:19:07 10° NNW
Cosmos 1603 3.9 05:10:20 10° NW 05:15:49 49° WSW 05:21:14 10° S
CZ-4B R/B 3.2 05:11:38 10° NNE 05:16:03 79° ESE 05:20:13 10° S
NOSS 3-4 (A) 4.4 05:14:24 10° NW 05:20:43 34° WSW 05:27:19 10° S
NOSS 3-4 (C) 4.4 05:14:30 10° NW 05:20:50 35° WSW 05:27:28 10° S
PSLV R/B 3.8 05:17:16 10° N 05:21:17 71° WNW 05:25:09 10° SSW
Cosmos 304 Rocket 4.0 05:19:31 10° NNW 05:24:22 79° ENE 05:29:10 10° SSE
